Izmir, Turkey

7:07 AM +03 on May 30, 2017 (GMT +0300)
Izmir

Weather History for LTBJ - March, 2013

Change the Weather History Date:

Sunday, March 10, 2013

  Actual Average Record
Temperature  
Mean Temperature 59 °F -  
Max Temperature 66 °F 61 °F 77 °F (2002)
Min Temperature 52 °F 41 °F 28 °F (2006)
Degree Days  
Heating Degree Days 6    
Growing Degree Days 9 (Base 50)    
Moisture  
Dew Point 52 °F    
Average Humidity 82    
Maximum Humidity 94    
Minimum Humidity 58    
Precipitation  
Precipitation 0.00 in - - ()
Sea Level Pressure  
Sea Level Pressure 29.82 in    
Wind  
Wind Speed 8 mph ()    
Max Wind Speed 17 mph    
Max Gust Speed -    
Visibility 6.0 miles    
Events Rain    
Averages and records for this station are not official NWS values.
T = Trace of Precipitation, MM = Missing Value Source: Averaged Metar Reports

Daily Weather History Graph

Daily Weather History Graph

Search for Another Location

Airport or City:

Trip Planner

Search our weather history database for the weather conditions in past years. The results will help you decide how hot, cold, wet, or windy it might be!

Date:

Astronomy

Mar. 10, 2013 Rise Set
Actual Time 6:30 AM EET 6:13 PM EET
Civil Twilight 6:03 AM EET 6:39 PM EET
Nautical Twilight 5:33 AM EET 7:10 PM EET
Astronomical Twilight 5:02 AM EET 7:41 PM EET
Moon 5:18 AM EET (3/10) 5:00 PM EET (3/10)
Length of Visible Light 12h 36m
Length of Day
11h 43m
Waning Crescent, 2% of the Moon is Illuminated
Mar 10
Waning Crescent
Mar 11
New
Mar 19
First Quarter
Mar 27
Full
Apr 3
Last Quarter

Hourly Weather History & Observations

Time (EET) Temp. Dew Point Humidity Pressure Visibility Wind Dir Wind Speed Gust Speed Precip Events Conditions
12:20 AM 53.6 °F 51.8 °F 94% 29.83 in 5.0 mi South 5.8 mph - N/A   Mostly Cloudy
12:50 AM 53.6 °F 51.8 °F 94% 29.83 in 5.0 mi South 6.9 mph - N/A   Mostly Cloudy
1:00 AM 53.6 °F 51.8 °F 94% 29.83 in 5.0 mi South 8.1 mph - N/A Rain Light Rain Showers
1:20 AM 53.6 °F 51.8 °F 94% 29.83 in 5.0 mi SSE 10.4 mph - N/A Rain Light Rain Showers
1:50 AM 53.6 °F 51.8 °F 94% 29.80 in 5.0 mi SSE 9.2 mph - N/A Rain Light Rain Showers
2:00 AM 53 °F 52 °F 93% 29.83 in 5 mi SSE 9.2 mph - - Rain Light Rain Showers
2:20 AM 53.6 °F 51.8 °F 94% 29.80 in 5.0 mi SE 10.4 mph - N/A Rain Light Rain Showers
2:32 AM 53.6 °F 51.8 °F 94% 29.80 in 5.0 mi SE 10.4 mph - N/A   Mostly Cloudy
2:50 AM 53.6 °F 51.8 °F 94% 29.80 in 5.6 mi Variable 1.2 mph - N/A   Mostly Cloudy
3:20 AM 53.6 °F 51.8 °F 94% 29.80 in 5.0 mi South 6.9 mph - N/A   Mostly Cloudy
3:50 AM 53.6 °F 51.8 °F 94% 29.80 in 5.0 mi SE 8.1 mph - N/A   Mostly Cloudy
4:20 AM 53.6 °F 51.8 °F 94% 29.80 in 5.0 mi SE 9.2 mph - N/A   Mostly Cloudy
4:50 AM 53.6 °F 51.8 °F 94% 29.80 in 5.0 mi SSE 4.6 mph - N/A Rain Light Rain Showers
5:20 AM 53.6 °F 51.8 °F 94% 29.83 in 5.0 mi Variable 1.2 mph - N/A   Mostly Cloudy
5:50 AM 53.6 °F 50.0 °F 88% 29.83 in 4.3 mi SE 3.5 mph - N/A   Mostly Cloudy
6:20 AM 53.6 °F 51.8 °F 94% 29.83 in 5.0 mi SE 8.1 mph - N/A   Mostly Cloudy
6:50 AM 53.6 °F 51.8 °F 94% 29.80 in 6.2 mi SE 5.8 mph - N/A   Mostly Cloudy
7:20 AM 55.4 °F 51.8 °F 88% 29.83 in 6.2 mi SSE 5.8 mph - N/A   Mostly Cloudy
7:50 AM 55.4 °F 51.8 °F 88% 29.83 in 6.2 mi South 6.9 mph - N/A   Mostly Cloudy
8:00 AM 55 °F 52 °F 87% 29.84 in 9 mi South 6.9 mph - -   Partly Cloudy
8:20 AM 55.4 °F 53.6 °F 94% 29.83 in 6.2 mi SSE 8.1 mph - N/A   Mostly Cloudy
8:50 AM 57.2 °F 53.6 °F 88% 29.83 in 6.2 mi SE 11.5 mph - N/A   Mostly Cloudy
9:20 AM 59.0 °F 53.6 °F 82% 29.83 in 6.2 mi SE 9.2 mph - N/A   Mostly Cloudy
9:50 AM 60.8 °F 53.6 °F 77% 29.83 in 6.2 mi SE 10.4 mph - N/A   Mostly Cloudy
10:20 AM 60.8 °F 53.6 °F 77% 29.83 in 6.2 mi SSE 10.4 mph - N/A   Mostly Cloudy
10:50 AM 62.6 °F 53.6 °F 72% 29.83 in 6.2 mi SSE 10.4 mph - N/A   Mostly Cloudy
11:20 AM 64.4 °F 55.4 °F 73% 29.83 in 6.2 mi South 15.0 mph - N/A   Mostly Cloudy
11:50 AM 64.4 °F 55.4 °F 73% 29.83 in 6.2 mi South 15.0 mph - N/A   Mostly Cloudy
12:20 PM 64.4 °F 55.4 °F 73% 29.83 in 6.2 mi South 17.3 mph - N/A   Mostly Cloudy
12:50 PM 64.4 °F 51.8 °F 64% 29.83 in 6.2 mi South 15.0 mph - N/A   Mostly Cloudy
1:20 PM 64.4 °F 51.8 °F 64% 29.83 in 6.2 mi SSW 13.8 mph - N/A   Mostly Cloudy
1:50 PM 64.4 °F 53.6 °F 68% 29.80 in 6.2 mi SSW 13.8 mph - N/A   Mostly Cloudy
2:00 PM 65 °F 54 °F 58% 29.82 in 9 mi SSW 13.8 mph - -   Partly Cloudy
2:20 PM 64.4 °F 53.6 °F 68% 29.80 in 6.2 mi South 16.1 mph - N/A   Mostly Cloudy
2:50 PM 64.4 °F 53.6 °F 68% 29.80 in 6.2 mi South 12.7 mph - N/A   Mostly Cloudy
3:20 PM 66.2 °F 55.4 °F 68% 29.80 in 6.2 mi South 15.0 mph - N/A   Mostly Cloudy
3:50 PM 64.4 °F 51.8 °F 64% 29.80 in 6.2 mi SSW 16.1 mph - N/A   Mostly Cloudy
4:20 PM 64.4 °F 51.8 °F 64% 29.80 in 6.2 mi SSW 12.7 mph - N/A   Mostly Cloudy
4:50 PM 62.6 °F 51.8 °F 68% 29.80 in 6.2 mi SSW 11.5 mph - N/A   Mostly Cloudy
5:20 PM 62.6 °F 51.8 °F 68% 29.80 in 6.2 mi South 10.4 mph - N/A   Scattered Clouds
5:50 PM 59.0 °F 51.8 °F 77% 29.80 in 6.2 mi South 9.2 mph - N/A   Scattered Clouds
6:20 PM 59.0 °F 51.8 °F 77% 29.80 in 6.2 mi SSE 9.2 mph - N/A   Scattered Clouds
6:50 PM 55.4 °F 50.0 °F 82% 29.80 in 6.2 mi South 6.9 mph - N/A   Scattered Clouds
7:20 PM 55.4 °F 50.0 °F 82% 29.80 in 6.2 mi South 5.8 mph - N/A   Scattered Clouds
7:50 PM 55.4 °F 50.0 °F 82% 29.83 in 6.2 mi SSW 8.1 mph - N/A   Partly Cloudy
8:00 PM 55 °F 49 °F 74% 29.83 in 9 mi SSW 8.1 mph - -   Scattered Clouds
8:20 PM 55.4 °F 50.0 °F 82% 29.83 in 6.2 mi South 6.9 mph - N/A   Partly Cloudy
8:50 PM 55.4 °F 50.0 °F 82% 29.83 in 6.2 mi South 4.6 mph - N/A   Partly Cloudy
9:20 PM 55.4 °F 50.0 °F 82% 29.83 in 6.2 mi South 6.9 mph - N/A   Partly Cloudy
9:50 PM 53.6 °F 50.0 °F 88% 29.80 in 6.2 mi Calm Calm - N/A   Partly Cloudy
10:20 PM 53.6 °F 50.0 °F 88% 29.83 in 6.2 mi Variable 3.5 mph - N/A   Partly Cloudy
10:50 PM 53.6 °F 48.2 °F 82% 29.80 in 6.2 mi Variable 2.3 mph - N/A   Partly Cloudy
11:20 PM 53.6 °F 50.0 °F 88% 29.80 in 6.2 mi Variable 3.5 mph - N/A   Scattered Clouds
11:50 PM 53.6 °F 50.0 °F 88% 29.80 in 6.2 mi Calm Calm - N/A   Scattered Clouds